Terug naar catalogus

CZ-6A DEB

ActiefPO
NORAD 56591·DEBRIS·🇨🇳 China

Gelanceerd Nov 11, 2022 vanaf Taiyuan Satellite Launch Center

Loading…

Volgende Passages (komende 24 uur)

TLE

VersSource: Space-Track

Epoch: Sep 14, 2026, 01:00 UTC

1 56591U 22151ADP 26257.04176331  .00000093  00000-0  13828-3 0  9991
2 56591  99.0950 172.7930 0290215  72.6709 290.5957 13.57819726168033

Volg CZ-6A DEB in realtime met AllMySat

Download on the App Store